NOAA 16 DEB, 41068

Orbit data source: Space-Track

NOAA 16 DEB, 41068 is space debris in SSO originally from a launch on Thu, 21 Sep 2000 UTC launched from the Air Force Western Test Range (AFWTR). Debris objects in space refer to the collection of defunct objects orbiting the Earth. Examples of debris include non-operational satellites, rocket bodies, and fragments generated from explosions, collisions, or faulty payload assembly.

Loading next visibility...
Identifier
41068, 2000-055AB
Orbit
SSO
Country
Flag of USUS
Related business
Manufacturer
Unknown
Mission
Spacecraft
Bus & Motor
Unknown
Mass
Unknown
Launch date (UTC)
Icon of a cake. It is the launch day of the satellite!2000-09-21 (26 years ago)
Launch vehicle
Unknown
Launch site
Air Force Western Test Range (AFWTR)
Object type
Payload
Rocket body
Debris
Shape & HBR
Unknown shape, 0.1 m
Radar Cross Section
Medium (>0.1 m² and <1 m²)

Expand to show TLE details & history
Last TLE update: 19 hours ago

TLE from 19 hours ago
0 NOAA 16 DEB
1 41068U 00055AB  26263.90415436  .00000789  00000-0  22497-3 0  9991
2 41068  99.1793 250.8344 0138782 203.3536 156.1308 14.42987017565942
Epoch: 2026-09-20T21:41Z
TLE epoch observation values (Epoch: 2026-09-20T21:41:58.936Z)
Latitude
-0.00007°
Longitude
-74.4528°
Altitude
842.263 km
Speed
7.384 km/s
True Right ascension
16h 43m 20s
True Declination
0° 00' 00"
Sunlit
Object was in daylight at epoch
Visualization orbit readout
Latitude
Unknown
Longitude
Unknown
Altitude
Unknown
Speed
Unknown
Apparent Right ascension
Unknown
Apparent Declination
Unknown
Sunlit
N/A
Visualization observer readout
Local Sidereal Time
09:57:38
Azimuth
Unknown
Elevation
Unknown
Doppler factor
Unknown
Orbital elements
Apogee altitude
844.664 km
Perigee altitude
646.929 km
Semi-major axis
7,123.934 km
Eccentricity
0.01388
Inclination
99.1793°
RAAN
250.8344°
Arg. of periapsis
203.3536°
True anomaly
156.76426°
Mean anomaly
156.1308°
Eccentric anomaly
156.44853°
Mean motion
3.60964 °/min
Orbital period
99.73 mins
BSTAR
0.00022497
Loading maneuver chart data...
Computing Atmospheric mass density...

Documentation

Showing up to 5 results
|